Temperature
25 24 24 24 22 22 24 26 27 27 26 26 26 26 25 24 22 20 20 21 21 21 20 20 20 20 20 19 19 19 19 19 19 19 19 19 19 19 19 19 18 18 18 18 18 18 18 18 18
25 25 24 24 22 22 25 27 27 27 26 26 26 25 24 22 21 20 20 21 21 21 21 20 20 20 20 19 19 19 19 19 19 19 19 19 18 18 18 18 18 18 18 18 18 18 18 18 17
25 25 24 21 22 23 25 27 27 27 27 27 26 25 24 22 20 21 21 21 22 21 21 20 20 20 20 19 19 19 19 19 19 19 19 18 18 18 18 18 18 18 18 18 18 18 18 17 17
25 25 24 21 23 25 26 27 27 26 26 26 26 25 24 23 22 22 21 22 22 21 21 20 20 20 20 19 19 19 19 19 19 19 18 18 18 18 18 18 18 18 18 18 18 18 18 17 17
25 25 22 22 24 27 28 28 28 27 26 25 25 24 23 23 23 22 22 22 22 21 21 20 20 20 19 19 19 19 19 19 19 19 19 18 18 18 18 18 18 18 18 18 18 18 18 17 17
25 23 22 22 25 28 28 29 28 26 25 25 24 23 22 22 23 22 22 22 22 22 21 20 20 20 19 19 19 19 19 19 19 19 19 18 18 18 18 18 18 18 18 18 18 18 17 17 17
25 22 23 24 26 27 28 28 27 26 25 25 25 23 22 21 22 22 22 22 22 22 21 21 20 20 20 19 19 19 19 19 19 19 19 18 18 18 18 18 18 18 18 18 18 18 17 17 17
27 22 24 24 26 27 28 28 27 27 26 26 25 23 22 21 22 22 22 22 21 21 21 21 20 20 20 20 19 19 19 19 19 19 18 18 18 18 18 18 18 18 18 18 18 18 17 17 17
27 22 23 25 27 27 29 28 28 27 26 26 26 25 24 22 21 21 21 21 21 21 21 21 21 20 20 20 19 19 19 19 19 19 18 18 18 18 18 18 18 18 18 18 18 18 18 17 17
26 23 25 27 28 28 29 28 28 27 26 25 25 25 24 22 22 21 21 21 21 21 21 21 21 20 20 20 19 19 19 19 18 18 18 18 18 18 18 18 18 18 18 18 18 18 18 17 17
27 26 27 29 30 30 29 29 28 26 25 25 25 24 23 23 22 22 21 21 21 21 21 21 21 20 20 20 19 19 19 19 18 18 18 18 18 18 18 18 18 18 18 18 18 18 18 18 17
27 28 29 30 31 30 30 29 28 27 27 28 27 25 24 23 22 22 22 21 21 21 21 21 21 20 20 20 20 19 19 19 18 18 18 18 18 18 18 18 18 18 18 18 18 18 18 18 18
28 28 30 31 31 31 31 30 29 28 28 27 26 25 24 24 23 23 22 22 22 21 21 21 21 20 20 20 19 19 19 19 18 18 18 18 18 18 18 18 18 18 18 18 18 18 18 18 17
28 29 29 30 31 31 30 29 28 28 27 26 25 24 24 24 23 23 22 22 21 21 21 21 20 20 20 19 19 19 19 19 18 18 18 18 18 18 18 18 18 18 18 18 18 18 18 18 17
29 27 27 28 30 30 29 28 27 28 27 25 25 24 24 24 23 23 23 22 22 21 21 20 20 19 19 19 19 19 18 18 18 18 18 18 18 18 18 18 18 18 18 17 17 17 17 17 17
26 26 26 27 28 30 28 26 27 28 26 25 24 24 23 23 23 23 23 23 22 21 21 20 20 19 19 19 18 18 18 18 18 18 18 18 18 18 18 18 18 18 17 18 18 17 17 17 17
24 25 26 27 29 29 28 26 27 27 26 25 24 24 23 23 23 23 23 22 22 21 21 20 20 19 19 19 18 18 18 18 18 18 18 18 18 18 18 18 18 18 17 18 18 18 17 17 17
24 25 26 27 29 29 28 27 27 27 26 25 25 24 23 23 23 23 23 22 22 21 21 20 20 19 19 19 18 18 18 18 18 18 18 18 18 18 18 18 18 18 18 18 17 17 17 17 17
25 26 26 27 29 29 28 27 27 26 26 25 24 24 23 23 23 23 22 22 21 21 20 20 20 19 19 18 18 18 18 18 18 18 18 18 18 18 18 18 18 18 18 18 17 17 17 17 17
26 26 26 27 29 29 28 27 27 26 25 25 24 23 23 23 22 22 22 21 21 21 20 20 20 19 19 19 18 18 18 18 18 18 18 18 17 18 18 18 18 18 18 18 17 17 17 17 17
26 26 27 28 28 28 28 26 25 25 25 25 24 24 23 23 22 22 21 21 21 20 20 20 19 19 19 18 18 18 17 17 17 17 17 17 17 18 18 18 18 18 18 18 18 17 17 17 17
25 27 28 28 26 24 26 23 24 24 24 23 23 23 23 23 22 22 22 21 21 20 20 19 19 19 19 18 18 18 18 18 18 18 17 17 17 17 17 18 18 18 17 17 18 17 17 17 17
26 28 28 28 26 24 24 23 23 23 23 23 23 23 23 23 23 22 22 22 21 20 20 19 19 19 18 18 18 18 18 18 18 17 17 17 17 17 17 17 18 18 17 17 17 17 17 17 17
28 28 25 22 21 23 24 24 23 22 23 23 23 23 23 23 23 22 22 21 20 20 20 19 19 18 18 18 18 18 18 18 17 17 17 17 17 17 17 17 17 17 17 17 17 17 17 17 17
27 23 21 22 20 21 22 23 22 23 24 24 23 23 23 23 22 22 21 21 20 20 19 19 19 18 18 18 18 18 17 17 17 17 17 17 17 17 17 17 17 17 17 17 17 17 17 17 17
25 22 21 22 22 21 23 23 23 24 25 25 24 23 23 22 22 22 22 21 21 20 20 19 19 18 18 18 18 17 17 17 17 17 17 17 17 17 17 17 17 17 17 17 17 17 17 17 17
25 23 22 20 22 22 22 23 23 24 23 23 23 23 22 22 22 22 22 21 21 20 20 19 19 18 18 18 18 17 17 17 17 17 17 17 17 17 17 17 17 17 17 17 17 17 17 17 17
26 24 20 20 21 21 22 22 22 23 22 22 22 22 22 22 22 22 21 21 21 20 20 19 19 18 18 18 17 17 17 17 17 17 17 17 17 17 17 17 17 17 17 17 17 17 17 17 17
26 25 21 19 19 20 21 21 23 22 22 22 22 22 21 21 22 22 21 21 20 20 19 19 18 18 18 18 17 17 17 17 17 17 17 17 17 17 17 17 17 17 17 17 17 17 17 17 17
25 24 21 21 21 19 20 21 23 22 22 22 22 22 22 22 22 22 21 21 20 20 19 19 18 18 18 18 17 17 17 17 17 17 17 17 17 17 17 17 17 17 17 17 17 17 17 16 16
Wind_Speed
6 4 2 1 4 5 3 5 10 12 8 9 11 11 9 6 5 7 6 16 19 16 18 21 21 21 20 19 19 18 18 18 17 17 17 17 17 17 17 17 17 16 16 16 16 16 17 17 17
3 2 1 4 5 4 2 6 13 14 12 13 13 12 9 8 10 11 9 17 19 17 18 20 22 21 21 20 19 18 17 17 17 17 17 17 17 17 17 17 16 16 16 16 16 16 16 16 15
3 0 3 5 3 2 1 6 16 14 13 11 7 7 6 8 11 7 12 19 17 15 18 21 23 22 21 20 19 18 17 17 16 16 16 16 16 16 17 16 16 16 15 15 15 14 14 14 14
1 4 5 4 1 3 4 6 15 14 9 8 9 7 5 6 8 13 20 19 18 13 17 21 23 22 21 20 19 18 17 17 16 16 16 16 16 16 16 16 15 15 14 14 14 13 13 13 12
3 4 5 3 3 2 4 8 13 13 7 8 11 8 5 5 20 22 20 19 18 13 15 20 22 22 21 20 19 19 18 17 16 16 16 15 16 16 16 16 15 14 14 13 12 12 12 11 11
4 5 4 3 3 2 3 10 15 16 13 10 10 8 5 13 22 21 20 17 17 16 15 19 22 21 20 20 19 18 18 17 16 16 16 15 15 15 15 15 14 14 13 12 11 11 10 10 10
4 3 0 3 3 1 3 7 13 14 11 8 9 7 7 13 19 20 18 17 15 15 14 15 18 19 20 19 19 18 17 17 16 16 16 15 15 15 14 14 14 13 12 11 10 9 9 9 9
5 4 2 2 1 0 4 5 10 13 9 9 9 10 10 15 18 19 17 16 14 12 11 11 14 16 16 17 18 17 17 16 16 16 15 15 15 14 14 13 13 12 11 10 9 8 7 8 8
4 4 2 4 2 2 4 7 6 6 10 6 4 7 16 20 21 20 18 15 13 13 10 10 11 13 14 15 16 16 16 16 15 15 15 14 13 13 12 12 12 11 10 9 7 6 5 6 7
4 3 7 5 4 3 4 8 8 6 8 5 8 11 18 21 22 22 21 19 16 15 12 10 10 11 13 13 14 13 13 13 12 12 12 11 12 11 11 12 12 11 9 8 6 5 4 4 4
5 6 7 6 4 3 2 4 5 11 6 10 16 20 21 20 19 20 20 19 18 17 16 13 11 11 11 8 11 10 10 11 11 11 11 10 9 8 9 9 8 8 7 5 4 3 2 1 2
5 9 7 7 5 2 3 4 5 8 10 15 20 23 21 20 19 20 20 18 17 17 16 14 13 11 10 11 9 9 8 8 8 11 12 9 7 6 7 6 6 6 5 4 3 2 2 1 2
5 7 7 6 4 4 3 4 5 4 9 14 18 19 19 18 15 15 16 17 17 15 15 15 13 12 10 10 8 9 8 8 10 11 11 11 7 5 6 6 6 6 6 5 4 4 2 2 3
6 8 10 6 4 2 3 1 4 4 13 16 17 17 16 16 14 13 15 15 16 16 16 15 13 11 10 8 6 7 9 10 10 10 10 12 10 8 6 5 5 6 6 7 6 5 3 3 4
7 8 10 6 4 3 5 2 4 10 16 17 17 15 14 13 14 15 17 18 17 16 15 15 14 12 12 9 8 8 10 10 8 9 11 12 11 10 8 5 4 5 6 6 4 3 3 3 3
7 5 5 8 4 4 7 4 5 12 17 16 15 15 14 11 13 12 14 14 14 14 14 15 14 13 11 9 7 7 9 9 8 10 11 11 11 11 8 4 4 5 6 5 3 2 2 2 3
5 4 6 9 5 4 6 6 7 10 16 15 15 14 13 11 10 10 13 13 13 14 14 13 11 12 11 9 7 7 7 7 8 9 9 10 10 10 8 5 5 6 4 3 3 2 3 3 3
5 5 7 8 6 5 6 6 8 9 14 15 15 13 13 13 11 12 12 12 12 12 12 12 11 11 10 8 6 5 5 4 6 7 8 9 10 10 8 5 5 6 3 3 3 3 2 3 3
6 8 12 11 5 4 6 7 7 10 11 12 12 12 13 11 9 11 12 12 11 11 11 11 11 10 9 7 6 6 5 4 4 5 9 10 10 10 8 5 4 4 4 4 5 3 3 2 2
9 10 10 8 4 2 4 4 4 10 13 15 16 14 13 10 9 10 10 11 11 11 11 11 11 11 10 8 6 4 4 4 4 4 7 9 9 10 9 6 5 4 4 4 4 4 3 1 2
10 7 6 6 6 6 3 4 1 1 5 9 12 12 13 14 14 12 11 10 11 11 12 11 11 11 9 8 6 4 4 3 3 3 4 6 9 9 9 8 6 5 5 5 5 5 5 3 1
10 9 6 3 4 4 3 1 5 3 3 7 8 10 12 13 12 12 12 11 11 11 10 10 10 10 9 10 9 9 7 6 6 5 4 5 7 8 9 8 7 5 5 5 5 5 4 4 2
10 9 3 1 2 3 4 2 6 1 4 7 9 11 13 14 14 13 13 12 11 10 10 9 9 9 9 9 10 9 6 5 4 4 5 6 5 7 9 8 7 6 5 6 5 5 4 4 4
7 2 8 7 6 3 4 3 5 5 8 9 9 11 13 13 13 12 10 9 8 9 9 9 9 9 9 9 9 9 9 7 6 6 6 5 4 4 6 7 6 6 5 6 5 5 6 4 4
2 6 4 5 5 6 4 3 8 8 9 11 12 12 12 13 12 12 12 11 10 11 11 10 10 8 8 9 8 9 9 8 8 7 7 6 5 4 6 6 5 5 6 6 5 5 5 5 5
6 11 8 6 5 5 3 3 6 5 7 9 11 12 12 11 11 12 13 12 12 12 11 10 10 8 8 8 8 7 7 6 6 7 6 6 5 5 6 6 6 6 7 6 5 4 5 4 5
7 7 11 8 3 1 5 4 6 4 7 10 11 11 11 11 11 11 11 11 11 11 10 10 10 8 8 8 7 6 7 6 6 6 5 5 4 5 6 6 7 6 6 6 6 4 5 4 4
10 9 7 6 5 4 4 3 5 4 7 10 10 10 10 9 10 10 10 10 9 9 8 8 8 8 7 7 7 6 6 6 6 5 6 6 5 5 6 6 6 6 6 6 6 5 4 5 4
5 6 6 6 7 7 4 7 7 11 11 12 12 11 11 10 10 10 9 9 9 8 8 8 7 6 6 6 5 5 5 5 5 5 6 6 5 5 5 6 6 6 6 6 5 6 5 5 4
10 10 10 7 5 6 5 7 5 8 9 11 11 11 10 11 11 10 10 9 9 9 8 8 7 7 6 6 5 5 4 4 5 5 5 5 5 5 5 5 5 5 5 5 6 6 6 6 5
Wind_Direction
246 217 170 76 48 44 70 93 96 82 62 66 77 83 88 71 112 135 130 135 132 136 139 138 136 132 128 124 121 117 114 111 109 108 108 108 109 110 109 110 110 109 108 108 108 108 107 108 110
260 211 97 51 66 51 64 110 95 99 114 101 82 81 74 69 88 110 121 135 133 135 137 139 137 134 131 128 125 122 119 116 114 113 113 112 112 112 111 111 111 111 110 109 109 108 108 108 109
284 23 70 58 77 139 126 99 103 102 105 100 93 73 75 107 115 120 137 136 131 133 137 141 139 137 135 133 130 127 124 121 119 118 116 115 115 115 114 113 112 113 113 112 112 110 108 108 108
27 46 47 59 299 217 173 136 117 106 80 75 92 72 75 113 119 132 138 137 131 131 137 143 141 139 138 137 134 131 129 127 124 121 119 119 119 118 116 115 115 115 114 114 113 111 108 107 106
60 67 41 7 292 234 166 156 128 113 106 90 92 88 66 78 121 133 139 137 134 134 138 143 142 142 141 140 138 136 133 131 129 126 124 122 121 120 120 118 118 118 117 116 113 110 107 105 103
47 63 55 324 294 341 128 131 114 108 114 110 100 98 87 128 132 141 140 138 138 139 139 143 144 144 144 143 142 140 138 136 134 132 130 128 126 124 124 123 123 122 121 119 116 110 105 102 98
106 83 194 266 293 21 122 121 117 127 127 138 130 106 121 146 144 143 139 137 138 140 140 142 147 147 147 146 146 145 144 142 139 137 135 133 131 130 130 129 129 127 125 123 119 113 107 101 94
139 95 328 281 266 83 127 113 133 127 125 137 139 134 156 162 148 140 135 134 137 141 143 141 144 147 149 149 150 149 148 146 144 142 140 139 138 137 136 135 134 133 131 129 124 118 110 100 91
111 81 248 234 193 193 139 117 121 115 127 153 156 148 155 148 144 138 135 136 143 148 149 147 146 149 149 150 154 154 152 151 149 148 146 141 138 140 141 144 142 140 140 139 135 128 114 94 84
116 167 232 223 187 173 153 134 140 122 124 119 110 124 142 144 147 148 150 153 156 157 160 160 155 154 155 159 153 154 153 152 150 150 146 144 146 150 151 154 151 149 148 149 148 139 115 94 80
185 215 246 254 220 171 153 145 133 132 153 160 151 149 151 151 153 156 159 161 164 163 165 166 167 164 164 155 155 155 154 156 158 158 157 156 156 157 155 156 155 153 155 156 158 144 137 120 97
252 259 259 264 254 198 174 148 141 160 179 169 158 155 156 159 162 164 164 165 165 167 169 167 169 169 167 160 163 161 162 168 168 169 168 159 153 154 159 159 162 165 172 178 180 187 212 223 156
277 283 290 275 277 222 167 169 157 172 146 147 148 153 161 165 165 166 164 164 165 168 169 171 173 169 166 163 170 169 171 175 175 172 172 164 160 163 168 172 179 188 189 187 194 211 214 187 150
285 305 308 299 282 215 148 163 109 154 136 146 154 161 166 167 164 161 162 166 169 171 170 170 171 167 164 169 169 167 174 174 169 170 173 171 169 171 169 169 177 187 190 189 189 195 185 161 142
322 325 320 302 278 247 108 357 177 160 145 153 162 165 166 169 168 170 170 170 171 170 167 168 168 167 165 167 171 167 171 170 166 170 173 173 172 172 167 166 173 183 183 171 160 166 139 133 134
345 345 309 291 274 250 129 203 206 156 152 159 165 167 167 173 177 171 167 164 164 161 162 167 171 167 165 161 160 163 163 165 166 168 175 175 173 172 165 161 172 177 167 158 144 131 115 116 130
352 312 286 295 261 198 145 191 201 166 156 160 164 166 166 168 171 166 162 159 159 160 160 162 161 164 163 155 151 158 157 161 168 166 171 173 171 171 164 159 168 165 153 153 157 133 134 138 141
262 294 302 295 275 162 153 184 191 170 156 162 162 161 165 168 171 165 159 157 155 155 156 158 156 158 155 146 140 144 148 155 165 169 175 175 175 174 165 162 164 152 138 142 139 137 127 141 151
261 286 291 291 280 142 163 175 182 166 158 158 162 162 165 168 160 152 154 154 152 153 156 159 160 160 155 155 160 158 165 165 165 179 181 180 181 177 168 167 163 151 153 162 150 134 127 124 124
265 278 290 302 327 85 166 201 191 168 171 167 166 168 164 156 149 152 154 158 160 162 163 162 164 164 165 166 163 157 156 161 168 182 188 189 185 178 177 168 168 160 156 155 146 133 129 138 140
271 253 263 285 342 14 79 354 335 183 138 157 161 162 159 163 159 160 165 167 163 165 169 168 165 164 164 159 145 133 120 124 162 189 190 195 188 182 176 174 170 166 163 171 171 157 148 160 175
264 255 253 301 18 315 73 278 284 211 158 161 162 159 163 163 162 167 167 167 170 171 166 160 162 163 163 161 162 164 171 180 194 188 187 193 190 183 180 177 175 175 173 176 184 172 161 154 171
235 248 255 330 77 358 5 113 279 180 181 191 178 173 171 170 168 173 172 170 170 167 164 162 161 167 169 170 171 174 182 187 182 176 183 197 200 190 186 181 177 176 179 183 181 167 166 162 166
229 34 28 43 63 346 267 160 260 219 198 190 181 178 175 171 167 166 164 155 160 161 161 163 168 175 177 175 177 181 182 182 178 185 191 200 201 200 193 183 180 180 182 186 186 179 172 173 168
140 91 30 356 8 258 265 173 240 235 188 174 170 171 169 164 160 157 156 158 164 165 167 167 171 176 178 179 181 184 186 186 187 190 196 198 199 206 202 196 185 184 188 186 180 177 178 177 172
187 143 158 193 221 276 318 219 259 257 168 147 149 155 156 160 165 166 167 167 169 169 169 168 171 173 177 182 184 186 183 186 194 194 190 196 200 203 197 193 191 189 186 187 175 181 189 184 184
166 173 172 147 177 301 292 301 332 34 111 121 137 150 155 161 166 168 164 163 163 166 169 169 170 171 177 182 182 184 186 188 193 191 187 189 197 202 195 188 191 190 185 182 176 185 191 183 191
172 163 111 131 170 241 277 257 214 204 157 140 150 160 154 153 160 160 158 159 159 161 159 159 164 174 179 182 184 184 185 188 186 184 189 190 193 200 188 187 191 190 189 186 187 188 193 187 198
172 148 130 141 158 164 222 261 219 194 177 163 168 166 155 155 160 160 157 153 151 150 152 157 163 162 169 177 179 177 183 187 186 188 190 189 189 192 189 186 185 186 189 189 181 183 183 190 203
182 180 153 163 212 168 172 258 251 183 172 158 159 157 155 158 156 152 149 145 145 150 156 160 165 166 172 174 172 178 178 177 181 189 191 184 186 185 182 177 173 182 185 184 187 190 187 191 201
Height
1508 1507 1506 1506 1508 1517 1517 1507 1500 1500 1502 1502 1502 1503 1507 1512 1517 1528 1525 1527 1531 1533 1536 1539 1540 1542 1543 1544 1545 1546 1547 1548 1548 1549 1550 1550 1551 1552 1552 1553 1553 1554 1555 1556 1556 1557 1557 1558 1559
1508 1507 1507 1507 1518 1531 1521 1504 1503 1503 1504 1504 1505 1506 1509 1515 1517 1521 1524 1529 1531 1534 1536 1539 1541 1542 1544 1545 1547 1548 1548 1549 1550 1551 1551 1552 1553 1553 1554 1555 1555 1556 1557 1558 1558 1559 1560 1560 1561
1509 1508 1509 1512 1523 1529 1520 1505 1503 1505 1504 1503 1507 1510 1513 1518 1520 1522 1525 1529 1532 1535 1537 1539 1541 1543 1544 1546 1547 1549 1550 1551 1551 1552 1553 1553 1554 1555 1556 1556 1557 1558 1559 1560 1561 1561 1562 1563 1564
1510 1510 1511 1519 1523 1515 1509 1505 1502 1506 1507 1506 1507 1513 1517 1521 1521 1523 1527 1530 1533 1535 1538 1540 1542 1544 1545 1547 1548 1549 1551 1552 1553 1554 1554 1555 1556 1557 1557 1558 1559 1560 1561 1562 1563 1564 1565 1566 1566
1510 1511 1519 1525 1519 1507 1501 1500 1500 1503 1507 1509 1508 1515 1520 1523 1523 1525 1528 1531 1533 1536 1539 1541 1543 1545 1546 1548 1549 1550 1552 1553 1554 1555 1556 1557 1557 1558 1559 1560 1561 1562 1563 1564 1565 1566 1567 1568 1569
1512 1513 1528 1531 1517 1505 1501 1499 1500 1504 1508 1511 1512 1517 1523 1524 1525 1527 1530 1533 1535 1536 1539 1541 1544 1545 1547 1549 1550 1551 1553 1554 1555 1556 1557 1558 1559 1560 1561 1562 1563 1564 1565 1566 1567 1568 1569 1570 1571
1514 1518 1526 1523 1515 1508 1503 1501 1500 1504 1507 1510 1512 1517 1524 1526 1526 1529 1531 1534 1536 1538 1539 1542 1544 1546 1548 1550 1551 1552 1554 1555 1556 1557 1558 1559 1560 1562 1563 1564 1565 1566 1567 1568 1569 1570 1572 1573 1573
1512 1518 1522 1520 1514 1509 1501 1501 1503 1502 1506 1510 1511 1514 1521 1525 1527 1529 1532 1535 1536 1539 1540 1542 1544 1546 1548 1550 1552 1553 1555 1556 1557 1558 1559 1561 1562 1563 1564 1565 1566 1567 1569 1570 1571 1572 1573 1574 1575
1512 1521 1526 1517 1510 1506 1500 1501 1504 1503 1504 1507 1510 1512 1516 1522 1526 1529 1531 1535 1537 1539 1540 1542 1544 1546 1548 1550 1552 1554 1556 1557 1558 1559 1560 1562 1563 1564 1566 1567 1568 1569 1570 1572 1573 1574 1575 1576 1577
1510 1522 1515 1503 1500 1500 1499 1499 1502 1505 1506 1507 1510 1513 1518 1521 1524 1526 1528 1531 1535 1537 1540 1542 1544 1546 1548 1550 1551 1554 1556 1557 1559 1560 1561 1563 1564 1566 1567 1568 1570 1571 1572 1573 1574 1576 1577 1578 1579
1507 1510 1502 1498 1496 1497 1498 1499 1500 1503 1506 1505 1507 1511 1517 1521 1523 1525 1527 1530 1533 1536 1539 1541 1544 1546 1547 1549 1551 1553 1555 1557 1559 1561 1562 1564 1565 1567 1568 1570 1571 1572 1573 1575 1576 1577 1578 1579 1580
1505 1500 1498 1495 1494 1495 1495 1497 1500 1499 1501 1501 1504 1508 1513 1518 1520 1523 1525 1529 1532 1535 1537 1540 1543 1545 1547 1549 1551 1553 1555 1557 1559 1561 1563 1564 1566 1567 1569 1571 1572 1573 1575 1576 1577 1578 1579 1580 1581
1501 1498 1495 1494 1492 1492 1493 1495 1496 1498 1500 1503 1506 1510 1513 1516 1520 1523 1525 1527 1531 1534 1536 1539 1542 1544 1546 1549 1551 1553 1555 1557 1559 1561 1563 1565 1566 1568 1570 1571 1573 1574 1575 1577 1578 1579 1580 1581 1582
1500 1497 1493 1491 1490 1490 1492 1494 1495 1498 1500 1503 1507 1510 1512 1515 1519 1522 1524 1526 1529 1531 1534 1538 1540 1543 1546 1548 1550 1552 1555 1557 1559 1561 1563 1565 1567 1568 1570 1571 1573 1574 1576 1577 1578 1579 1581 1581 1582
1499 1498 1494 1489 1489 1490 1493 1499 1496 1496 1499 1503 1507 1510 1513 1515 1518 1520 1521 1524 1527 1530 1533 1536 1539 1542 1545 1547 1550 1552 1554 1557 1559 1561 1563 1565 1567 1568 1570 1572 1573 1574 1576 1577 1579 1580 1581 1582 1583
1500 1503 1507 1493 1488 1488 1496 1508 1496 1495 1497 1501 1505 1509 1512 1515 1517 1519 1521 1523 1526 1528 1531 1534 1537 1540 1543 1546 1548 1551 1554 1556 1558 1560 1562 1564 1566 1568 1570 1572 1573 1574 1575 1577 1578 1580 1581 1582 1583
1511 1516 1511 1499 1486 1487 1494 1502 1495 1494 1496 1499 1503 1507 1510 1513 1516 1518 1521 1523 1525 1528 1530 1532 1535 1538 1542 1544 1547 1550 1552 1555 1557 1559 1561 1563 1565 1567 1570 1571 1573 1574 1575 1577 1578 1579 1580 1582 1583
1521 1516 1510 1503 1487 1485 1492 1495 1492 1494 1495 1498 1500 1504 1508 1510 1513 1516 1519 1522 1525 1527 1529 1531 1534 1537 1540 1543 1545 1548 1551 1553 1555 1558 1560 1562 1564 1566 1569 1570 1572 1573 1575 1576 1577 1579 1580 1581 1582
1509 1511 1511 1498 1484 1486 1492 1493 1492 1493 1495 1497 1500 1502 1505 1508 1512 1515 1518 1521 1523 1526 1528 1530 1532 1535 1538 1540 1543 1545 1548 1551 1554 1556 1559 1561 1563 1565 1567 1569 1570 1572 1574 1575 1576 1578 1579 1580 1582
1507 1511 1507 1496 1484 1487 1493 1494 1490 1491 1492 1494 1497 1500 1503 1508 1512 1514 1517 1519 1521 1523 1525 1528 1530 1533 1535 1538 1541 1544 1547 1550 1552 1555 1557 1559 1561 1564 1566 1567 1569 1571 1573 1574 1575 1576 1578 1579 1581
1504 1506 1503 1499 1491 1489 1494 1504 1498 1494 1494 1496 1497 1499 1502 1505 1508 1512 1515 1517 1519 1521 1523 1526 1528 1530 1533 1537 1540 1542 1545 1548 1550 1553 1555 1557 1560 1562 1563 1566 1568 1569 1571 1572 1574 1575 1576 1578 1579
1507 1493 1492 1493 1503 1512 1504 1525 1509 1500 1499 1498 1499 1500 1502 1504 1508 1510 1513 1515 1518 1520 1522 1525 1527 1529 1532 1534 1537 1540 1542 1544 1547 1549 1552 1555 1558 1560 1561 1564 1566 1567 1569 1570 1572 1573 1575 1576 1577
1494 1486 1488 1492 1501 1513 1510 1521 1516 1502 1503 1500 1499 1499 1500 1502 1505 1508 1511 1513 1517 1520 1522 1524 1526 1528 1530 1533 1535 1538 1540 1543 1545 1548 1550 1552 1555 1557 1559 1561 1563 1565 1566 1568 1570 1571 1573 1574 1575
1482 1487 1495 1505 1515 1529 1516 1520 1520 1506 1499 1496 1496 1497 1499 1501 1503 1507 1511 1514 1516 1519 1521 1523 1525 1527 1529 1531 1533 1536 1538 1541 1543 1545 1547 1549 1552 1554 1556 1558 1560 1562 1564 1566 1567 1569 1570 1572 1573
1484 1508 1531 1532 1542 1536 1514 1516 1514 1492 1488 1489 1491 1495 1498 1500 1503 1506 1510 1513 1515 1518 1520 1522 1524 1526 1528 1529 1531 1534 1536 1538 1540 1542 1544 1546 1548 1550 1552 1555 1557 1559 1561 1563 1565 1566 1567 1569 1570
1489 1503 1532 1542 1544 1534 1515 1517 1503 1484 1483 1485 1488 1493 1497 1500 1503 1506 1508 1511 1514 1517 1519 1521 1523 1524 1526 1528 1529 1532 1534 1536 1537 1539 1541 1543 1545 1548 1550 1552 1554 1556 1558 1560 1562 1563 1564 1566 1567
1488 1498 1500 1521 1526 1533 1526 1511 1497 1486 1487 1489 1492 1496 1498 1500 1504 1506 1508 1511 1514 1516 1518 1520 1522 1523 1525 1526 1528 1529 1531 1533 1535 1537 1539 1540 1543 1545 1547 1549 1551 1553 1555 1557 1559 1560 1561 1563 1564
1474 1484 1506 1521 1535 1541 1528 1519 1513 1497 1494 1492 1494 1495 1498 1501 1504 1507 1509 1511 1514 1516 1518 1520 1521 1522 1523 1525 1526 1527 1529 1531 1533 1534 1536 1538 1540 1542 1544 1546 1548 1550 1552 1554 1555 1556 1558 1560 1561
1478 1485 1497 1514 1521 1535 1538 1525 1491 1489 1488 1489 1491 1494 1497 1501 1504 1506 1509 1511 1514 1516 1518 1519 1520 1521 1522 1523 1525 1526 1527 1529 1530 1532 1534 1536 1537 1539 1541 1543 1545 1547 1549 1551 1552 1553 1555 1556 1558
1468 1476 1491 1511 1516 1521 1528 1518 1481 1481 1484 1486 1490 1493 1496 1500 1503 1506 1508 1511 1513 1516 1517 1519 1520 1521 1522 1523 1524 1524 1526 1527 1529 1530 1532 1534 1536 1538 1539 1541 1543 1544 1546 1548 1549 1550 1552 1553 1554